TimeEDT,TemperatureF,Dew PointF,Humidity,Sea Level PressureIn,VisibilityMPH,Wind Direction,Wind SpeedMPH,Gust SpeedMPH,PrecipitationIn,Events,Conditions,WindDirDegrees,DateUTC
12:13 AM,64.4,55.8,73,29.88,10.0,SW,12.7,20.7,N/A,,Overcast,230,2012-10-05 04:13:00
12:33 AM,63.7,55.6,75,29.89,10.0,SW,13.8,-,N/A,,Overcast,230,2012-10-05 04:33:00
12:53 AM,63.1,55.0,75,29.88,10.0,SW,12.7,23.0,N/A,,Overcast,230,2012-10-05 04:53:00
1:13 AM,62.6,54.7,75,29.89,10.0,WSW,16.1,19.6,N/A,,Overcast,240,2012-10-05 05:13:00
1:33 AM,61.9,54.5,77,29.89,10.0,WSW,12.7,-,N/A,,Mostly Cloudy,240,2012-10-05 05:33:00
1:53 AM,61.7,52.3,71,29.90,10.0,WSW,15.0,18.4,N/A,,Mostly Cloudy,250,2012-10-05 05:53:00
2:13 AM,61.7,48.2,61,29.90,10.0,West,13.8,-,N/A,,Overcast,270,2012-10-05 06:13:00
2:33 AM,60.8,46.9,60,29.91,10.0,West,13.8,-,N/A,,Overcast,270,2012-10-05 06:33:00
2:53 AM,59.0,45.5,61,29.91,10.0,West,13.8,23.0,N/A,,Scattered Clouds,260,2012-10-05 06:53:00
3:13 AM,58.1,45.1,62,29.91,10.0,West,13.8,17.3,N/A,,Clear,260,2012-10-05 07:13:00
3:33 AM,57.2,44.4,62,29.91,10.0,West,13.8,24.2,N/A,,Clear,260,2012-10-05 07:33:00
3:53 AM,55.8,42.4,61,29.92,10.0,West,13.8,20.7,N/A,,Clear,260,2012-10-05 07:53:00
4:13 AM,54.7,41.9,62,29.93,10.0,West,15.0,20.7,N/A,,Clear,260,2012-10-05 08:13:00
4:33 AM,53.2,40.8,63,29.93,10.0,West,11.5,18.4,N/A,,Clear,280,2012-10-05 08:33:00
4:53 AM,52.2,40.1,64,29.93,10.0,West,10.4,-,N/A,,Clear,280,2012-10-05 08:53:00
5:13 AM,51.1,39.4,64,29.94,10.0,West,9.2,-,N/A,,Clear,270,2012-10-05 09:13:00
5:33 AM,50.0,39.6,67,29.95,10.0,West,10.4,16.1,N/A,,Clear,270,2012-10-05 09:33:00
5:54 AM,48.4,38.8,70,29.96,10.0,WSW,10.4,-,N/A,,Clear,250,2012-10-05 09:54:00
6:13 AM,48.9,39.0,69,29.96,10.0,West,12.7,18.4,N/A,,Clear,270,2012-10-05 10:13:00
6:33 AM,47.3,38.7,72,29.95,10.0,WSW,8.1,-,N/A,,Clear,250,2012-10-05 10:33:00
6:53 AM,46.0,38.5,75,29.97,10.0,WSW,10.4,-,N/A,,Clear,240,2012-10-05 10:53:00
7:13 AM,46.4,38.3,73,29.97,10.0,West,11.5,17.3,N/A,,Clear,260,2012-10-05 11:13:00
7:33 AM,45.7,38.1,75,29.97,10.0,West,6.9,16.1,N/A,,Clear,260,2012-10-05 11:33:00
7:54 AM,42.6,37.0,81,29.98,10.0,WSW,6.9,-,N/A,,Clear,240,2012-10-05 11:54:00
8:13 AM,40.6,37.0,87,29.98,10.0,West,9.2,-,N/A,,Clear,260,2012-10-05 12:13:00
8:33 AM,46.0,38.5,75,29.97,10.0,West,8.1,-,N/A,,Clear,260,2012-10-05 12:33:00
8:53 AM,46.6,39.2,75,29.98,10.0,SW,8.1,-,N/A,,Clear,230,2012-10-05 12:53:00
9:13 AM,47.5,39.4,73,29.98,10.0,WSW,11.5,-,N/A,,Clear,240,2012-10-05 13:13:00
9:33 AM,48.7,39.4,70,29.98,10.0,WSW,13.8,-,N/A,,Clear,240,2012-10-05 13:33:00
9:53 AM,49.5,38.7,66,29.98,10.0,WSW,12.7,18.4,N/A,,Clear,250,2012-10-05 13:53:00
10:13 AM,50.7,38.3,62,29.97,10.0,West,11.5,-,N/A,,Clear,280,2012-10-05 14:13:00
10:33 AM,50.0,37.6,62,29.97,10.0,WSW,11.5,-,N/A,,Clear,240,2012-10-05 14:33:00
10:53 AM,51.6,37.2,58,29.97,10.0,WSW,13.8,17.3,N/A,,Clear,240,2012-10-05 14:53:00
11:13 AM,52.9,36.9,55,29.96,10.0,WSW,15.0,20.7,N/A,,Clear,250,2012-10-05 15:13:00
11:33 AM,54.1,37.4,53,29.96,10.0,West,11.5,20.7,N/A,,Clear,260,2012-10-05 15:33:00
11:53 AM,54.5,37.0,52,29.96,10.0,WSW,15.0,20.7,N/A,,Clear,250,2012-10-05 15:53:00
12:13 PM,55.9,36.9,49,29.95,10.0,WSW,13.8,18.4,N/A,,Clear,240,2012-10-05 16:13:00
12:33 PM,56.5,35.8,46,29.95,10.0,West,15.0,21.9,N/A,,Clear,260,2012-10-05 16:33:00
12:53 PM,56.7,35.1,44,29.95,10.0,WSW,16.1,24.2,N/A,,Clear,250,2012-10-05 16:53:00
1:13 PM,58.1,33.3,39,29.94,10.0,West,17.3,26.5,N/A,,Clear,270,2012-10-05 17:13:00
1:33 PM,58.1,32.7,38,29.94,10.0,West,16.1,23.0,N/A,,Clear,270,2012-10-05 17:33:00
1:53 PM,59.0,32.9,37,29.93,10.0,WSW,12.7,23.0,N/A,,Clear,240,2012-10-05 17:53:00
2:13 PM,59.0,32.0,36,29.91,10.0,WSW,20.7,24.2,N/A,,Clear,240,2012-10-05 18:13:00
2:33 PM,59.0,31.5,35,29.91,10.0,West,15.0,21.9,N/A,,Clear,270,2012-10-05 18:33:00
2:53 PM,60.1,31.6,34,29.91,10.0,WSW,17.3,21.9,N/A,,Clear,250,2012-10-05 18:53:00
3:13 PM,58.5,31.1,35,29.91,10.0,WSW,16.1,23.0,N/A,,Clear,240,2012-10-05 19:13:00
3:33 PM,59.2,30.9,34,29.91,10.0,West,13.8,-,N/A,,Clear,260,2012-10-05 19:33:00
3:53 PM,58.1,31.1,36,29.90,10.0,WSW,10.4,21.9,N/A,,Clear,250,2012-10-05 19:53:00
4:13 PM,57.7,31.5,37,29.90,10.0,WSW,13.8,-,N/A,,Clear,240,2012-10-05 20:13:00
4:33 PM,57.4,31.6,38,29.89,10.0,West,13.8,-,N/A,,Clear,260,2012-10-05 20:33:00
4:53 PM,57.4,30.7,36,29.88,10.0,WSW,11.5,-,N/A,,Clear,240,2012-10-05 20:53:00
5:13 PM,57.2,31.8,38,29.88,10.0,WSW,15.0,-,N/A,,Clear,240,2012-10-05 21:13:00
5:33 PM,56.1,29.7,36,29.88,10.0,WSW,15.0,20.7,N/A,,Clear,250,2012-10-05 21:33:00
5:53 PM,55.8,29.7,37,29.88,10.0,West,12.7,18.4,N/A,,Clear,260,2012-10-05 21:53:00
6:13 PM,55.4,30.4,38,29.88,10.0,WSW,10.4,-,N/A,,Clear,250,2012-10-05 22:13:00
6:34 PM,54.7,32.0,42,29.88,10.0,SW,5.8,-,N/A,,Clear,230,2012-10-05 22:34:00
6:53 PM,54.0,32.0,43,29.89,10.0,SW,12.7,-,N/A,,Clear,230,2012-10-05 22:53:00
7:13 PM,53.4,32.0,44,29.88,10.0,WSW,10.4,-,N/A,,Clear,240,2012-10-05 23:13:00
7:34 PM,52.5,32.7,47,29.89,10.0,WSW,6.9,-,N/A,,Clear,240,2012-10-05 23:34:00
7:53 PM,52.2,33.3,49,29.89,10.0,SW,8.1,-,N/A,,Scattered Clouds,230,2012-10-05 23:53:00
8:13 PM,51.8,32.4,48,29.89,10.0,WSW,8.1,-,N/A,,Overcast,240,2012-10-06 00:13:00
8:33 PM,51.8,31.6,46,29.89,10.0,WSW,12.7,-,N/A,,Overcast,250,2012-10-06 00:33:00
8:53 PM,51.6,31.8,47,29.89,10.0,WSW,12.7,-,N/A,,Overcast,250,2012-10-06 00:53:00
9:13 PM,51.1,33.4,51,29.89,10.0,West,17.3,24.2,N/A,,Overcast,260,2012-10-06 01:13:00
9:33 PM,50.4,34.0,53,29.89,10.0,West,13.8,19.6,N/A,,Scattered Clouds,260,2012-10-06 01:33:00
9:53 PM,49.8,34.5,56,29.89,10.0,WSW,11.5,-,N/A,,Clear,240,2012-10-06 01:53:00
10:13 PM,48.6,34.9,59,29.88,10.0,WSW,8.1,-,N/A,,Clear,240,2012-10-06 02:13:00
10:33 PM,48.9,35.2,59,29.88,10.0,SW,9.2,-,N/A,,Clear,230,2012-10-06 02:33:00
10:53 PM,48.6,35.2,60,29.88,10.0,WSW,10.4,-,N/A,,Clear,240,2012-10-06 02:53:00
11:13 PM,48.2,35.6,62,29.87,10.0,SW,9.2,-,N/A,,Clear,230,2012-10-06 03:13:00
11:33 PM,48.2,35.8,62,29.86,10.0,SW,8.1,-,N/A,,Clear,230,2012-10-06 03:33:00
11:53 PM,48.0,35.8,63,29.86,10.0,SW,8.1,-,N/A,,Clear,220,2012-10-06 03:53:00